This is the latest recevied weather packets stored in our database for station/object W1HS. If no packets are shown the sender has not sent any weather packets the latest 10 day(s).
| Time | Temp. | Humidity | Pressure | Rain* | Wind** | Luminosity | Snow |
|---|---|---|---|---|---|---|---|
| 1777552399 | 7.78° C | 95% | 987.4 hPa | 0 mm | - | 142 W/m² | - |
| 1777549399 | 7.22° C | 95% | 987.8 hPa | 0.25 mm | - | 58 W/m² | - |
| 1777548799 | 7.22° C | 94% | 987.7 hPa | 0.51 mm | - | 28 W/m² | - |
| 1777548199 | 7.22° C | 95% | 987.6 hPa | 0.51 mm | - | 51 W/m² | - |
| 1777547599 | 6.67° C | 95% | 987.8 hPa | 0.25 mm | - | 49 W/m² | - |
| 1777546999 | 6.67° C | 94% | 987.7 hPa | 0.25 mm | - | 31 W/m² | - |
| 1777544599 | 6.67° C | 94% | 987.8 hPa | 0.51 mm | - | 7 W/m² | - |
| 1777543399 | 6.67° C | 94% | 987.9 hPa | 1.02 mm | - | 0 W/m² | - |
| 1777540999 | 6.67° C | 94% | 988.2 hPa | 2.03 mm | - | 0 W/m² | - |
| 1777536798 | 6.67° C | 92% | 988.2 hPa | 2.03 mm | - | 0 W/m² | - |
| 1777536198 | 6.67° C | 92% | 988.5 hPa | 2.03 mm | - | 0 W/m² | - |
| 1777535749 | 6.67° C | 92% | 988.6 hPa | 2.03 mm | - | 0 W/m² | - |
| 1777535058 | 6.67° C | 92% | 988.7 hPa | 1.52 mm | - | 0 W/m² | - |
| 1777534458 | 7.22° C | 91% | 988.7 hPa | 1.27 mm | - | 0 W/m² | - |
| 1777533858 | 7.22° C | 91% | 988.9 hPa | 0.76 mm | - | 0 W/m² | - |
| 1777533260 | 7.22° C | 91% | 988.9 hPa | 0.51 mm | - | 0 W/m² | - |
| 1777532658 | 7.22° C | 90% | 989.1 hPa | 0.25 mm | - | 0 W/m² | - |
| 1777532060 | 7.22° C | 90% | 989.2 hPa | 0 mm | - | 0 W/m² | - |
| 1777531461 | 7.22° C | 89% | 989.3 hPa | 0 mm | - | 0 W/m² | - |
| 1777530859 | 6.67° C | 89% | 989.5 hPa | 0 mm | - | 0 W/m² | - |
| 1777530258 | 6.67° C | 89% | 989.5 hPa | 0 mm | - | 0 W/m² | - |
| 1777529658 | 7.22° C | 89% | 989.5 hPa | 0 mm | - | 0 W/m² | - |
| 1777529058 | 7.22° C | 89% | 989.7 hPa | 0 mm | - | 0 W/m² | - |
| 1777528458 | 6.67° C | 88% | 989.8 hPa | 0 mm | - | 0 W/m² | - |
| 1777527258 | 7.22° C | 88% | 990.1 hPa | 0 mm | - | 0 W/m² | - |
* Rain latest hour (hover to see other rain measurements)
** Current wind speed in m/s (hover to see current wind gust speed)